This demonstration page uses our WeatherBlox Daily Observations layout. Learn more.

Left ArrowRight Arrow

34.16533, -84.80231

Hourly Observations for March 6, 2017

Temp ( °F °C ) Dew Point ( °F °C ) Humidity (%) Winds ( mph kmh ) Pressure ( in mb ) Visibility ( mi km ) Precip ( " mm )
12:53 am 00:53 Mostly Cloudy 57 13.9 34 1.1 42 42 Calm 30.36 1028 10 16 0.00 0.00
1:53 am 01:53 Cloudy 53 11.7 39 3.9 59 59 Calm 30.37 1028 10 16 0.00 0.00
2:53 am 02:53 Cloudy 53 11.7 40 4.4 61 61 Calm 30.35 1028 10 16 0.00 0.00
3:53 am 03:53 Cloudy 57 13.9 44 6.7 62 62 VRB 3 6 30.33 1027 10 16 0.00 0.00
4:53 am 04:53 Cloudy 56 13.3 47 8.3 72 72 Calm 30.35 1028 10 16 0.00 0.00
5:53 am 05:53 Mostly Cloudy 56 13.3 47 8.3 72 72 VRB 3 6 30.36 1028 10 16 0.00 0.00
6:53 am 06:53 Cloudy 55 12.8 47 8.3 74 74 Calm 30.37 1028 10 16 0.00 0.00
7:53 am 07:53 Cloudy 56 13.3 48 8.9 75 75 ESE 6 9 30.38 1029 10 16 0.00 0.00
8:53 am 08:53 Cloudy 57 13.9 48 8.9 72 72 SE 9 15 30.39 1029 10 16 0.00 0.00
9:53 am 09:53 Mostly Sunny 60 15.6 48 8.9 65 65 SE 12 19 30.39 1029 10 16 0.00 0.00
10:53 am 10:53 Sunny 63 17.2 46 7.8 54 54 SSE 8 13 30.39 1029 10 16 0.00 0.00
11:53 am 11:53 Mostly Sunny 66 18.9 44 6.7 45 45 S 13 20 30.37 1028 10 16 0.00 0.00
12:53 pm 12:53 Sunny 68 20 45 7.2 44 44 SSE 15 24 30.34 1027 10 16 0.00 0.00
1:53 pm 13:53 Mostly Sunny 69 20.6 45 7.2 42 42 S 12 19 30.30 1026 10 16 0.00 0.00
2:53 pm 14:53 Partly Cloudy 69 20.6 43 6.1 39 39 SSE 10 17 30.27 1025 10 16 0.00 0.00
3:53 pm 15:53 Mostly Cloudy 69 20.6 42 5.6 38 38 S 10 17 30.26 1025 10 16 0.00 0.00
4:53 pm 16:53 Cloudy 70 21.1 41 5 35 35 S 12 19 30.24 1024 10 16 0.00 0.00
5:53 pm 17:53 Cloudy 69 20.6 41 5 36 36 S 8 13 30.25 1024 10 16 0.00 0.00
6:53 pm 18:53 Cloudy 67 19.4 41 5 39 39 SSE 7 11 30.26 1025 10 16 0.00 0.00
7:53 pm 19:53 Clear 64 17.8 43 6.1 46 46 SE 5 7 30.26 1025 10 16 0.00 0.00
8:53 pm 20:53 Clear 63 17.2 44 6.7 50 50 SSE 7 11 30.27 1025 10 16 0.00 0.00
9:53 pm 21:53 Clear 62 16.7 45 7.2 54 54 SSE 7 11 30.28 1026 10 16 0.00 0.00
10:53 pm 22:53 Partly Cloudy 61 16.1 44 6.7 54 54 SSE 6 9 30.29 1026 10 16 0.00 0.00
11:53 pm 23:53 Clear 60 15.6 44 6.7 56 56 SE 7 11 30.26 1025 10 16 0.00 0.00

Powered by AerisWeather